This demonstration page uses our WeatherBlox Daily Observations layout. Learn more.

Left ArrowRight Arrow

Hourly Observations for April 23, 2018

Temp ( °F °C ) Dew Point ( °F °C ) Humidity (%) Winds ( mph kmh ) Pressure ( in mb ) Visibility ( mi km ) Precip ( " mm )
12:56 am 00:56 Cloudy 51 10.6 41 5 69 69 NW 5 7 30.17 1022 10 16 0.00 0.00
1:56 am 01:56 Cloudy 52 11.1 41 5 66 66 WNW 3 6 30.17 1022 10 16 0.00 0.00
2:56 am 02:56 Cloudy 50 10 42 5.6 74 74 NW 3 6 30.16 1022 10 16 0.00 0.00
3:56 am 03:56 Cloudy 47 8.3 41 5 80 80 NW 6 9 30.16 1022 10 16 0.00 0.00
4:56 am 04:56 Cloudy 44 6.7 38 3.3 79 79 Calm 30.17 1022 10 16 0.00 0.00
5:56 am 05:56 Partly Cloudy 42 5.6 38 3.3 85 85 NW 5 7 30.18 1022 10 16 0.00 0.00
6:56 am 06:56 Sunny 38 3.3 35 1.7 89 89 Calm 30.19 1023 10 16 0.00 0.00
7:56 am 07:56 Sunny 42 5.6 38 3.3 85 85 NW 3 6 30.20 1023 10 16 0.00 0.00
8:56 am 08:56 Sunny 50 10 40 4.4 68 68 Calm 30.19 1023 10 16 0.00 0.00
9:56 am 09:56 Sunny 57 13.9 39 3.9 51 51 E 5 7 30.18 1022 10 16 0.00 0.00
10:56 am 10:56 Sunny 61 16.1 39 3.9 44 44 ESE 3 6 30.17 1022 10 16 0.00 0.00
11:56 am 11:56 Sunny 63 17.2 39 3.9 41 41 S 10 17 30.16 1022 10 16 0.00 0.00
12:56 pm 12:56 Sunny 65 18.3 39 3.9 39 39 ESE 7 11 30.15 1021 10 16 0.00 0.00
1:27 pm 13:27 Mostly Sunny 66 19 39 4 37 37 SE 8 13 30.09 1019 10 16 0.00 0.00
1:56 pm 13:56 Sunny 67 19.4 39 3.9 36 36 ESE 12 19 30.12 1020 10 16 0.00 0.00
2:56 pm 14:56 Partly Cloudy 68 20 39 3.9 35 35 SSE 13 20 30.10 1019 10 16 0.00 0.00
3:56 pm 15:56 Mostly Sunny 68 20 39 3.9 35 35 SSE 8 13 30.09 1019 10 16 0.00 0.00
4:56 pm 16:56 Sunny 68 20 38 3.3 33 33 SE 7 11 30.06 1018 10 16 0.00 0.00
5:56 pm 17:56 Sunny 68 20 38 3.3 33 33 S 7 11 30.05 1018 10 16 0.00 0.00
6:56 pm 18:56 Sunny 66 18.9 40 4.4 39 39 SE 8 13 30.06 1018 10 16 0.00 0.00
7:56 pm 19:56 Sunny 64 17.8 41 5 43 43 SE 9 15 30.06 1018 10 16 0.00 0.00
8:56 pm 20:56 Clear 59 15 41 5 51 51 SE 7 11 30.06 1018 10 16 0.00 0.00
9:56 pm 21:56 Clear 56 13.3 41 5 57 57 SSE 5 7 30.07 1018 10 16 0.00 0.00
10:56 pm 22:56 Partly Cloudy 54 12.2 41 5 62 62 Calm 30.09 1019 10 16 0.00 0.00
11:56 pm 23:56 Clear 51 10.6 41 5 69 69 WNW 3 6 30.11 1020 10 16 0.00 0.00

Powered by AerisWeather